[[{"header":{"parameterUnit":"m.s-1","parameterCategory":1,"la1":30.2991,"la2":30.254,"lo1":-89.0895,"lo2":-89.0444,"dy":0.0017,"dx":0.0017,"nx":28,"ny":28,"refTime":"2024-04-23T09:00:00:Z","depth":0,"parameterNumber":2,"parameterNumberName":"U-component_of_WINDS"},"data":[0,0,0,0,0,0,0,0,0,0,0,0,0,0,0,0,0,0,0,0,0,0,0,0,0,0,0,0,0,0,0,0,0,0,0,0,0,0,0,0,0,0,0,0,0,0,0,0,0,0,0,0,0,0,0,0,0,0,1.4555,1.4556,0,1.4625,1.4626,1.4627,1.4618,1.4617,1.4616,1.4615,1.4686,1.4689,1.4692,0,0,0,0,0,0,0,0,0,0,0,0,0,1.441,1.4413,1.4555,1.4556,1.4557,1.4625,1.4626,1.4627,1.4618,1.4617,1.4616,1.4614,1.4685,1.4688,1.4692,0,0,0,0,0,0,0,0,0,0,0,0,0,1.4476,1.4414,1.4555,1.4561,1.4562,1.4625,1.4626,1.4627,1.4619,1.4617,1.4615,1.4614,1.4684,1.4688,1.4692,1.4754,0,0,1.4706,1.4708,0,0,0,0,0,0,0,0,1.4472,1.4482,1.4559,1.456,1.4562,1.4611,1.4601,1.467,1.4619,1.4597,1.4615,1.4613,1.4662,1.4668,1.4685,1.4757,1.476,1.4706,1.4709,1.4711,1.4712,0,0,0,0,0,0,0,1.4468,1.4478,1.4583,1.456,1.4562,1.4559,1.4566,1.4614,1.4638,1.4599,1.4598,1.4607,1.4663,1.4681,1.4687,1.4761,1.4706,1.471,1.4713,1.4715,1.4884,1.4886,0,0,0,0,0,0,1.4462,1.4475,1.458,1.4585,1.4512,1.4563,1.4571,1.4597,1.4638,1.4642,1.4608,1.4606,1.4674,1.4682,1.4689,1.4761,1.4711,1.4715,1.4718,1.4882,1.4884,1.4886,0,0,0,0,0,0,1.4459,1.4472,1.4578,1.453,1.4543,1.4567,1.4596,1.4599,1.4618,1.4645,1.4649,1.4623,1.4673,1.4683,1.4737,1.4764,1.4717,1.4721,1.488,1.4883,1.4885,1.4908,0,0,0,0,0,0,1.4455,1.4471,1.4495,1.453,1.4546,1.4625,1.4598,1.4602,1.4625,1.4623,1.466,1.4664,1.4673,1.4731,1.4742,1.4769,1.4725,1.4878,1.4881,1.4884,1.4905,1.4911,1.4916,0,0,0,0,0,1.445,1.4499,1.4496,1.4509,1.4576,1.4627,1.4635,1.4645,1.4628,1.4651,1.4669,1.4663,1.476,1.4736,1.4749,1.4778,1.4876,1.488,1.4884,1.4902,1.491,1.4916,0,0,0,0,0,0,1.4466,1.4504,1.4501,1.4563,1.4592,1.4625,1.4656,1.4653,1.4687,1.4683,1.4694,1.4702,1.4756,1.4773,1.4746,1.4838,1.4815,1.4822,1.4825,1.4832,1.4838,1.4831,1.4728,0,0,0,0,0,1.4477,1.4515,1.4546,1.4598,1.4612,1.4631,1.4654,1.4658,1.4688,1.47,1.4722,1.475,1.4787,1.4811,1.4846,1.4908,1.4914,1.4934,1.4939,1.4944,1.4949,1.498,1.4988,1.49,1.49,1.49,0,0,1.45,1.4525,1.4549,1.4601,1.4624,1.4662,1.4642,1.4684,1.4711,1.4707,1.4758,1.4775,1.4807,1.4864,1.4891,1.488,1.4975,1.4949,1.4953,1.4955,1.4985,1.4993,1.5,1.4903,1.4902,1.4902,0,0,1.456,1.4584,1.4628,1.4651,1.4686,1.4698,1.4708,1.4742,1.4753,1.4805,1.4801,1.4834,1.4898,1.492,1.494,1.5007,1.5002,1.5019,1.5048,1.5077,1.5084,1.509,1.5111,1.5119,1.5024,1.5024,1.5024,0,1.4584,1.4641,1.4651,1.4693,1.4715,1.4713,1.4756,1.4778,1.4822,1.4837,1.4825,1.4903,1.4925,1.4986,1.5002,1.5019,1.503,1.5013,1.5083,1.5089,1.5095,1.5115,1.5123,1.5026,1.5025,1.5025,1.5025,0,1.4667,1.4707,1.4739,1.478,1.4807,1.4849,1.4864,1.489,1.4892,1.4905,1.4957,1.4983,1.5022,1.5038,1.5041,1.5098,1.509,1.5081,1.5057,1.5104,1.5123,1.5131,1.5028,1.5027,1.5027,1.5026,0,0,1.4739,1.4785,1.4796,1.4814,1.4851,1.4882,1.4923,1.4962,1.4982,1.5012,1.5046,1.5099,1.5089,1.5112,1.5117,1.5144,1.5191,1.513,1.5131,1.5138,1.5253,1.5258,1.5267,1.5189,1.5191,1.5192,1.5249,0,1.4801,1.4874,1.4884,1.4948,1.4984,1.4981,1.5017,1.5043,1.5056,1.5088,1.5102,1.5139,1.5125,1.5138,1.5164,1.518,1.5214,1.5176,1.5218,1.522,1.5207,1.5277,1.5284,1.5337,1.5257,1.5258,1.5259,0,1.4882,1.4914,1.4982,1.5011,1.5027,1.5059,1.5093,1.5124,1.5153,1.516,1.5185,1.5186,1.5228,1.5205,1.5261,1.5235,1.5252,1.5263,1.5265,1.5267,1.5241,1.5279,1.5354,1.5361,1.5272,1.5271,1.527,0,1.4924,1.4984,1.5031,1.5047,1.5084,1.5106,1.5122,1.515,1.5171,1.5202,1.5215,1.525,1.5269,1.5295,1.5306,1.5289,1.536,1.5339,1.5366,1.5365,1.5379,1.5378,1.5455,1.5395,1.5395,1.5395,1.5395,0,1.499,1.5031,1.505,1.5079,1.5124,1.5135,1.5179,1.5194,1.5218,1.5249,1.525,1.5279,1.5292,1.5323,1.5332,1.5375,1.5384,1.539,1.5391,1.5388,1.5387,1.5398,1.5394,1.5397,1.5396,1.5396,1.5396,0,1.5044,1.5059,1.511,1.514,1.5149,1.518,1.5206,1.5233,1.5246,1.5285,1.5294,1.5314,1.535,1.5364,1.5408,1.5413,1.5463,1.5462,1.5453,1.5452,1.5477,1.5474,1.5563,1.5574,1.5509,1.551,1.551,0,1.5084,1.5115,1.5148,1.5169,1.5185,1.5219,1.5241,1.5252,1.5274,1.5308,1.5331,1.5367,1.5396,1.5453,1.547,1.5504,1.5502,1.5531,1.5507,1.5503,1.5499,1.5496,1.5498,1.5535,1.5536,1.5536,1.5537,0,1.5152,1.5157,1.5189,1.5222,1.5248,1.5275,1.5301,1.5318,1.5333,1.5358,1.5394,1.5416,1.546,1.5495,1.5529,1.5545,1.5542,1.5544,1.5552,1.5548,1.554,1.5542,1.5462,1.5542,1.5541,1.5541,1.5541,1.554,1.5198,1.5225,1.5251,1.5286,1.5306,1.533,1.5356,1.5372,1.5403,1.5439,1.5444,1.5482,1.5508,1.5553,1.5571,1.56,1.5592,1.5604,1.5606,1.5608,1.5608,1.5537,1.5607,1.5606,1.5606,1.5606,1.5606,0,1.5264,1.5281,1.5312,1.5348,1.5374,1.5371,1.5399,1.5421,1.5455,1.5479,1.5507,1.5548,1.5581,1.5601,1.5634,1.5654,1.5653,1.5662,1.5659,1.5662,1.5615,1.5604,1.5661,1.5661,1.5661,1.5661,1.5661,1.5661,1.5301,1.5345,1.5353,1.5406,1.5423,1.546,1.5476,1.5497,1.5517,1.5562,1.5589,1.5602,1.5624,1.5659,1.5688,1.5693,1.5704,1.5713,1.5717,1.5672,1.5666,1.566,1.565,1.5716,1.5716,1.5761,1.5761,1.5762]},{"header":{"parameterUnit":"m.s-1","parameterCategory":1,"la1":30.2991,"la2":30.254,"lo1":-89.0895,"lo2":-89.0444,"dy":0.0017,"dx":0.0017,"nx":28,"ny":28,"refTime":"2024-04-23T09:00:00:Z","depth":0,"parameterNumber":3,"parameterNumberName":"V-component_of_WINDS"},"data":[0,0,0,0,0,0,0,0,0,0,0,0,0,0,0,0,0,0,0,0,0,0,0,0,0,0,0,0,0,0,0,0,0,0,0,0,0,0,0,0,0,0,0,0,0,0,0,0,0,0,0,0,0,0,0,0,0,0,-0.2179,-0.2177,0,-0.2058,-0.2056,-0.2055,-0.2039,-0.204,-0.2041,-0.2042,-0.1917,-0.1913,-0.1909,0,0,0,0,0,0,0,0,0,0,0,0,0,-0.2396,-0.2392,-0.2179,-0.2177,-0.2176,-0.2058,-0.2056,-0.2055,-0.2039,-0.204,-0.2042,-0.2043,-0.1919,-0.1913,-0.1908,0,0,0,0,0,0,0,0,0,0,0,0,0,-0.2291,-0.239,-0.2179,-0.2154,-0.215,-0.2058,-0.2056,-0.2054,-0.2039,-0.204,-0.2042,-0.2044,-0.192,-0.1914,-0.1907,-0.1832,0,0,-0.1887,-0.1884,0,0,0,0,0,0,0,0,-0.2297,-0.2283,-0.2159,-0.2155,-0.2151,-0.2065,-0.2087,-0.198,-0.2038,-0.2081,-0.2042,-0.2044,-0.1965,-0.1955,-0.1928,-0.1826,-0.1821,-0.1887,-0.1883,-0.188,-0.1878,0,0,0,0,0,0,0,-0.2304,-0.2288,-0.2131,-0.2157,-0.2152,-0.2148,-0.2135,-0.2066,-0.2015,-0.2077,-0.2076,-0.2062,-0.1963,-0.1935,-0.1925,-0.1819,-0.1887,-0.1881,-0.1877,-0.1874,-0.165,-0.1648,0,0,0,0,0,0,-0.2316,-0.2294,-0.2135,-0.2127,-0.223,-0.2143,-0.2128,-0.2091,-0.2015,-0.2006,-0.2061,-0.2062,-0.1945,-0.1933,-0.1921,-0.1828,-0.188,-0.1874,-0.187,-0.1652,-0.165,-0.1648,0,0,0,0,0,0,-0.2321,-0.2302,-0.214,-0.221,-0.2189,-0.2137,-0.2096,-0.2088,-0.2059,-0.2003,-0.1993,-0.2041,-0.1946,-0.193,-0.1855,-0.1824,-0.1871,-0.1865,-0.1655,-0.1652,-0.1649,-0.1642,0,0,0,0,0,0,-0.2327,-0.2304,-0.2274,-0.221,-0.2186,-0.2075,-0.2094,-0.2084,-0.2048,-0.2048,-0.1982,-0.1972,-0.1946,-0.1865,-0.1848,-0.1815,-0.1859,-0.1657,-0.1653,-0.165,-0.1645,-0.1639,-0.1634,0,0,0,0,0,-0.2335,-0.2277,-0.2273,-0.2254,-0.2148,-0.2074,-0.206,-0.2031,-0.2046,-0.2016,-0.198,-0.1975,-0.183,-0.1857,-0.1838,-0.1803,-0.1659,-0.1654,-0.165,-0.1647,-0.164,-0.1634,0,0,0,0,0,0,-0.2338,-0.2268,-0.2263,-0.2182,-0.2134,-0.2071,-0.2032,-0.2025,-0.1971,-0.1973,-0.194,-0.1925,-0.1851,-0.182,-0.1851,-0.1727,-0.1746,-0.1737,-0.175,-0.1743,-0.1738,-0.1747,-0.1854,0,0,0,0,0,-0.2329,-0.2275,-0.2217,-0.2151,-0.2127,-0.2084,-0.2051,-0.2033,-0.1982,-0.1961,-0.1919,-0.187,-0.1813,-0.1776,-0.1721,-0.1641,-0.1626,-0.1607,-0.1602,-0.1598,-0.1591,-0.1547,-0.1538,-0.1633,-0.1633,-0.1633,0,0,-0.2311,-0.2266,-0.2233,-0.2151,-0.2111,-0.2056,-0.2067,-0.2008,-0.1966,-0.1952,-0.1878,-0.1846,-0.1789,-0.1711,-0.1674,-0.1682,-0.1562,-0.1593,-0.159,-0.1585,-0.1542,-0.1533,-0.1525,-0.163,-0.1631,-0.1631,0,0,-0.2248,-0.2209,-0.215,-0.2111,-0.2052,-0.2024,-0.2011,-0.1949,-0.1927,-0.1853,-0.1842,-0.1792,-0.1695,-0.1655,-0.1622,-0.1547,-0.154,-0.153,-0.1503,-0.146,-0.1453,-0.1446,-0.1419,-0.141,-0.1523,-0.1523,-0.1523,0,-0.2232,-0.2149,-0.2121,-0.2063,-0.2027,-0.2013,-0.1953,-0.1917,-0.1842,-0.1818,-0.1828,-0.1708,-0.1667,-0.158,-0.1562,-0.1536,-0.1519,-0.1537,-0.1456,-0.1449,-0.1442,-0.1417,-0.1407,-0.1522,-0.1523,-0.1523,-0.1523,0,-0.2133,-0.2075,-0.2035,-0.1965,-0.1924,-0.1866,-0.1829,-0.1792,-0.1779,-0.175,-0.1675,-0.1627,-0.1563,-0.1541,-0.1526,-0.1452,-0.1459,-0.1463,-0.1481,-0.1433,-0.1408,-0.1398,-0.1521,-0.1521,-0.1522,-0.1522,0,0,-0.2067,-0.1984,-0.1969,-0.1938,-0.1873,-0.1828,-0.1769,-0.1707,-0.1676,-0.1626,-0.1576,-0.1495,-0.1499,-0.1462,-0.1443,-0.1406,-0.135,-0.1415,-0.1413,-0.1404,-0.1266,-0.1263,-0.1252,-0.1346,-0.1344,-0.1343,-0.1271,0,-0.1997,-0.1892,-0.1867,-0.1777,-0.1724,-0.1711,-0.166,-0.1615,-0.1587,-0.1537,-0.1506,-0.145,-0.1459,-0.1437,-0.14,-0.1365,-0.1322,-0.137,-0.1299,-0.1297,-0.1313,-0.1239,-0.1235,-0.117,-0.1261,-0.1259,-0.1258,0,-0.1901,-0.185,-0.1756,-0.1699,-0.1676,-0.163,-0.1572,-0.1525,-0.1474,-0.1456,-0.1416,-0.1401,-0.134,-0.1363,-0.1278,-0.1311,-0.1281,-0.126,-0.1257,-0.1248,-0.1274,-0.1228,-0.1148,-0.1138,-0.1243,-0.1244,-0.1245,0,-0.1863,-0.1771,-0.1702,-0.1676,-0.1608,-0.1577,-0.1547,-0.1498,-0.1462,-0.1411,-0.1388,-0.1331,-0.1299,-0.1255,-0.1226,-0.1245,-0.1144,-0.1164,-0.1127,-0.1128,-0.1106,-0.1107,-0.1019,-0.1087,-0.1087,-0.1088,-0.1088,0,-0.1787,-0.173,-0.1685,-0.1643,-0.1578,-0.155,-0.1487,-0.1457,-0.1414,-0.1366,-0.1351,-0.1306,-0.1271,-0.1221,-0.1198,-0.1132,-0.1118,-0.1102,-0.1096,-0.1103,-0.1105,-0.1082,-0.1086,-0.1085,-0.1086,-0.1086,-0.1087,0,-0.1733,-0.17,-0.1625,-0.1568,-0.1552,-0.1508,-0.1459,-0.1417,-0.139,-0.133,-0.1314,-0.1271,-0.1212,-0.1179,-0.1105,-0.1089,-0.1016,-0.1012,-0.1033,-0.103,-0.0996,-0.1,-0.0889,-0.0873,-0.0953,-0.0952,-0.0952,0,-0.1686,-0.1642,-0.1581,-0.1548,-0.1518,-0.1466,-0.143,-0.1401,-0.1364,-0.1304,-0.127,-0.1211,-0.1162,-0.1069,-0.1031,-0.0974,-0.097,-0.0935,-0.0961,-0.0969,-0.0969,-0.0972,-0.0967,-0.093,-0.0929,-0.0929,-0.0928,0,-0.1608,-0.1594,-0.1544,-0.1488,-0.1446,-0.1401,-0.1355,-0.133,-0.1293,-0.1253,-0.1193,-0.1155,-0.1081,-0.1022,-0.0963,-0.0932,-0.0924,-0.0921,-0.0909,-0.0915,-0.0929,-0.0921,-0.102,-0.0923,-0.0924,-0.0924,-0.0924,-0.0924,-0.1555,-0.1516,-0.1467,-0.1412,-0.1375,-0.1334,-0.1293,-0.1261,-0.1211,-0.1148,-0.1135,-0.1072,-0.1023,-0.0943,-0.0911,-0.0862,-0.0868,-0.0852,-0.0847,-0.0844,-0.0843,-0.0938,-0.0851,-0.0851,-0.0851,-0.0851,-0.0852,0,-0.1476,-0.1444,-0.1394,-0.1332,-0.1289,-0.1286,-0.1237,-0.12,-0.1146,-0.1101,-0.1054,-0.0986,-0.093,-0.0888,-0.0831,-0.0799,-0.0794,-0.0785,-0.0787,-0.078,-0.084,-0.0856,-0.079,-0.079,-0.079,-0.079,-0.079,-0.079,-0.1429,-0.1363,-0.1344,-0.126,-0.1229,-0.1168,-0.114,-0.1102,-0.1066,-0.0991,-0.0945,-0.0919,-0.0875,-0.0815,-0.0764,-0.0753,-0.0732,-0.0724,-0.0712,-0.0769,-0.0776,-0.0782,-0.0796,-0.072,-0.072,-0.0656,-0.0656,-0.0655]}]]